Weather History for Faith, SD

Change the Weather History Date:

Sunday, November 3, 2013

  Actual Average Record
Temperature  
Mean Temperature 44 °F 39 °F  
Max Temperature 54 °F 50 °F 66 °F (2001)
Min Temperature 33 °F 28 °F 17 °F (2003)
Degree Days  
Heating Degree Days 21 26  
Month to date heating degree days 65 76  
Since 1 July heating degree days 847 875  
Cooling Degree Days 0 0  
Month to date cooling degree days 0 0  
Year to date cooling degree days 720 635  
Moisture  
Dew Point 30 °F    
Average Humidity 67    
Maximum Humidity 82    
Minimum Humidity 52    
Precipitation  
Precipitation 0.00 in 0.04 in 0.01 in (1998)
Month to date precipitation 0.00 0.12  
Year to date precipitation 16.11 16.85  
Sea Level Pressure  
Sea Level Pressure 29.63 in    
Wind  
Wind Speed 14 mph (West)    
Max Wind Speed 24 mph    
Max Gust Speed 29 mph    
T = Trace of Precipitation, MM = Missing Value Source: NWS Daily Summary

Daily Weather History Graph

Daily Weather History Graph

Search for Another Location

Airport:

Trip Planner

Search our weather history database for the weather conditions in past years. The results will help you decide how hot, cold, wet, or windy it might be!

Date:

Astronomy

Nov. 03, 2013 Rise Set
Actual Time 6:29 AM MST 4:32 PM MST
Civil Twilight 5:58 AM MST 5:03 PM MST
Nautical Twilight 5:24 AM MST 5:38 PM MST
Astronomical Twilight 4:49 AM MST 6:12 PM MST
Moon 6:36 AM MST (11/3) 4:47 PM MST (11/3)
Length of Visible Light 11h 04m
Length of Day
10h 03m
New Moon, 0% of the Moon is Illuminated
Nov 3
New Moon
Nov 9
First Quarter
Nov 17
Full
Nov 25
Last Quarter
Dec 2
New

Hourly Weather History & Observations

Time (MST) Temp. Windchill Dew Point Humidity Pressure Visibility Wind Dir Wind Speed Gust Speed Precip Events Conditions
12:56 AM 39.9 °F 30.8 °F 28.0 °F 63% 29.58 in - SSE 18.4 mph - N/A   Unknown
1:56 AM 39.9 °F 31.1 °F 28.0 °F 63% 29.56 in - SSE 17.3 mph - N/A   Unknown
1:56 AM 36.0 °F 26.0 °F 28.0 °F 73% 29.55 in - SSE 17.3 mph - N/A   Unknown
2:56 AM 35.1 °F 25.2 °F 28.0 °F 76% 29.54 in - SSE 16.1 mph - N/A   Unknown
3:56 AM 33.1 °F 24.4 °F 27.0 °F 78% 29.55 in - SSE 11.5 mph - N/A   Unknown
4:56 AM 35.1 °F 26.9 °F 28.0 °F 76% 29.54 in - South 11.5 mph - N/A   Unknown
5:56 AM 34.0 °F 26.6 °F 28.0 °F 79% 29.55 in - South 9.2 mph - N/A   Unknown
6:56 AM 36.0 °F 28.0 °F 28.9 °F 76% 29.56 in - South 11.5 mph - N/A   Unknown
7:56 AM 37.0 °F 32.4 °F 30.0 °F 76% 29.58 in - WSW 5.8 mph - N/A   Unknown
8:56 AM 43.0 °F 36.8 °F 30.9 °F 62% 29.58 in - WNW 11.5 mph - N/A   Unknown
9:56 AM 44.1 °F 36.2 °F 33.1 °F 65% 29.57 in - NW 18.4 mph - N/A   Unknown
10:56 AM 46.9 °F - 34.0 °F 61% 29.57 in - NNW 18.4 mph - N/A   Unknown
11:56 AM 53.1 °F - 37.0 °F 55% 29.57 in - NW 17.3 mph 25.3 mph N/A   Unknown
12:56 PM 51.1 °F - 37.0 °F 59% 29.60 in - NW 20.7 mph - N/A   Unknown
1:56 PM 50.0 °F - 37.0 °F 61% 29.62 in - NW 16.1 mph - N/A   Unknown
2:56 PM 50.0 °F - 37.0 °F 61% 29.65 in - NW 16.1 mph - N/A   Unknown
3:56 PM 50.0 °F - 34.0 °F 54% 29.67 in - NW 19.6 mph 25.3 mph N/A   Unknown
4:56 PM 44.1 °F 37.1 °F 30.9 °F 60% 29.70 in - NW 15.0 mph - N/A   Unknown
5:56 PM 42.1 °F 36.6 °F 28.0 °F 58% 29.74 in - NW 9.2 mph - N/A   Unknown
6:56 PM 39.0 °F 31.4 °F 28.0 °F 65% 29.73 in - NW 12.7 mph - N/A   Unknown
7:56 PM 37.0 °F 29.8 °F 27.0 °F 67% 29.75 in - NW 10.4 mph - N/A   Unknown
8:56 PM 35.1 °F 27.9 °F 27.0 °F 72% 29.78 in - WNW 9.2 mph - N/A   Unknown
9:56 PM 34.0 °F 28.0 °F 26.1 °F 73% 29.81 in - West 6.9 mph - N/A   Unknown
10:56 PM 35.1 °F 26.4 °F 25.0 °F 67% 29.83 in - WNW 12.7 mph - N/A   Unknown